Wind_Speed
13 15 18 20 22 25 26 25 26 27 27 24 21 18 22 25 25 23 19 16 16 11 10 11 9 10 10 15 21 22 23 23 25 22 20 20 19 16 13 19 23 27 20 19
10 9 12 19 24 27 28 27 24 29 26 26 20 19 19 22 26 26 23 17 15 6 8 11 8 10 9 9 19 23 22 20 20 21 23 20 16 10 10 15 22 24 21 19
12 10 11 14 18 24 29 29 28 26 27 27 23 19 21 26 29 30 32 24 17 16 12 10 12 8 9 12 14 22 23 21 21 21 19 18 17 15 25 20 21 20 18 17
15 13 10 10 11 15 20 25 28 28 30 28 25 9 9 22 33 32 33 31 21 17 17 14 13 13 10 11 14 18 19 18 17 18 19 19 19 21 21 18 17 18 19 20
14 14 11 10 9 8 8 16 26 30 31 31 30 26 14 24 41 35 32 33 30 23 18 20 18 15 17 15 16 15 18 18 18 17 18 20 22 21 18 17 19 18 18 21
15 14 13 11 9 9 8 8 15 24 30 32 33 33 41 53 43 39 35 35 35 31 21 24 22 22 19 19 17 20 20 21 21 21 22 21 22 20 19 18 19 20 19 17
15 16 15 13 12 12 11 10 11 12 21 31 35 34 44 55 45 45 40 37 37 36 27 28 22 27 23 20 21 20 22 25 27 26 24 22 23 22 20 18 16 13 10 10
17 17 17 15 15 16 15 13 14 14 15 18 24 34 42 43 42 49 50 44 41 39 33 33 30 27 24 20 19 20 21 23 29 30 26 22 18 18 20 18 16 14 12 12
18 18 18 18 18 19 18 18 18 18 18 19 22 26 28 27 29 43 48 48 47 42 44 41 36 30 29 21 21 22 23 24 25 31 28 27 21 20 20 21 20 18 13 14
19 21 22 22 21 21 20 20 20 20 21 23 25 26 32 19 23 30 39 48 50 50 47 49 42 40 37 35 29 27 25 27 30 31 36 34 27 24 26 25 27 24 21 17
25 25 27 28 26 22 19 20 21 22 23 25 26 31 27 25 22 27 29 37 48 50 50 51 52 48 46 42 36 33 31 28 30 35 36 40 33 29 29 33 31 32 31 28
27 29 27 26 27 26 22 18 21 22 24 26 27 30 28 26 23 24 25 26 33 44 49 49 53 51 52 50 43 39 34 30 32 31 34 37 36 35 32 36 35 35 36 34
26 26 23 21 22 22 23 21 21 22 23 26 26 29 28 26 23 22 19 21 24 32 43 40 45 50 53 58 54 44 41 39 35 32 31 32 34 36 35 35 40 41 39 38
22 18 17 16 17 18 20 19 20 21 21 24 24 27 27 25 24 23 19 18 17 23 30 44 54 56 52 55 58 54 45 43 40 34 29 29 30 35 38 37 37 40 42 41
14 17 15 10 10 11 11 12 16 18 19 22 23 25 22 23 25 24 23 20 17 12 29 46 51 52 50 51 51 50 46 40 34 35 33 32 35 34 39 43 41 44 44 42
17 10 8 8 11 10 9 11 14 16 16 19 21 22 21 24 24 24 24 24 23 19 14 48 63 62 62 61 53 52 45 35 39 32 36 37 40 42 46 46 49 47 47 44
13 11 14 11 9 9 7 9 13 16 19 21 22 22 21 20 22 24 27 27 28 28 25 24 24 27 42 55 52 51 52 58 51 49 54 41 36 51 56 54 56 55 53 50
15 16 12 9 7 7 9 12 14 16 18 19 18 18 18 18 16 14 16 24 29 31 31 32 30 28 26 29 45 50 55 56 52 59 59 53 31 46 59 62 62 61 60 57
11 12 9 7 7 9 11 14 17 20 21 24 24 24 24 24 24 20 23 20 21 28 33 35 36 35 32 30 28 36 50 58 65 63 63 66 67 48 47 52 61 61 61 64
12 11 12 13 13 14 15 19 20 25 23 28 29 29 29 28 30 25 28 27 27 26 25 32 37 39 39 38 35 30 32 51 63 66 68 73 75 71 56 62 70 63 61 65
15 16 17 17 20 19 20 25 26 28 32 32 36 37 37 38 39 32 35 32 36 32 33 33 32 34 39 42 42 42 38 38 49 61 69 74 81 85 78 71 57 55 56 64
22 24 22 19 21 24 25 26 30 30 30 32 31 31 35 37 41 41 40 40 40 39 38 38 38 41 40 39 43 45 47 46 47 50 63 75 84 79 77 78 74 81 81 77
28 27 24 24 23 27 30 32 31 33 32 33 35 36 37 40 45 48 48 49 49 48 48 47 44 45 47 47 49 45 49 51 52 53 53 58 70 82 91 99 97 90 87 83
25 24 24 24 32 30 31 37 37 38 40 42 43 46 50 52 56 57 57 58 56 56 58 57 56 55 54 52 55 55 48 50 57 58 58 60 61 63 67 74 83 86 86 83
27 25 30 32 36 37 39 40 38 41 44 44 48 52 55 58 61 62 60 61 62 65 65 63 65 67 64 60 60 64 59 56 52 56 63 65 66 66 66 66 71 79 80 79
34 36 35 32 37 40 42 41 43 43 47 50 52 60 62 68 71 69 72 74 76 74 73 72 73 73 73 71 66 69 66 63 59 56 57 63 68 69 69 70 70 69 69 69
Wind_Direction
295 280 271 259 256 254 252 251 252 254 256 256 239 261 265 268 269 264 272 282 288 280 289 222 221 217 207 218 209 198 197 209 212 219 238 246 253 260 246 205 197 187 209 201
316 293 271 260 252 248 250 250 248 264 254 256 245 231 240 270 273 276 278 279 280 261 277 231 200 220 195 187 202 196 191 194 201 215 226 232 238 235 228 207 194 195 199 215
333 317 297 273 263 258 253 253 250 247 251 256 255 243 250 260 264 271 277 276 266 256 273 256 221 210 219 181 173 189 197 198 200 209 209 218 211 198 208 206 202 210 212 223
333 331 322 305 292 275 264 257 250 245 244 248 253 219 196 271 255 256 269 274 263 248 268 252 221 212 214 214 192 185 188 193 200 206 208 210 212 199 193 200 207 211 224 237
322 323 324 323 317 305 300 259 255 254 246 243 243 187 186 260 253 253 252 265 270 260 252 251 242 221 206 208 215 210 198 202 201 202 208 210 204 195 204 206 220 226 236 247
318 316 316 317 315 312 299 276 266 260 255 252 246 235 215 223 237 239 242 248 259 264 241 244 253 225 222 207 207 216 216 207 205 203 198 201 206 211 219 224 231 231 237 249
311 310 309 311 310 305 300 289 274 265 261 252 251 248 240 238 237 242 240 245 246 252 246 245 249 225 222 213 210 210 212 210 200 199 206 210 212 217 221 215 213 192 197 189
308 307 306 305 303 304 305 291 281 270 259 257 263 258 252 257 245 245 246 243 237 241 235 235 254 239 219 219 224 226 222 218 210 204 206 211 211 213 209 206 198 200 205 216
307 303 300 301 302 301 299 294 284 273 268 260 257 262 266 260 259 250 247 244 238 235 232 236 242 241 230 224 240 233 232 233 227 225 216 214 223 230 224 219 211 205 212 197
304 302 299 297 298 299 296 289 283 276 270 267 266 264 267 270 265 259 244 246 243 238 237 232 236 237 235 234 235 232 229 234 232 231 226 222 228 235 236 236 219 216 218 222
301 300 300 299 296 293 289 285 278 272 270 269 269 268 272 272 266 263 255 243 240 241 241 239 240 236 234 234 234 236 234 224 232 230 231 229 229 230 236 235 233 225 225 224
299 297 294 293 294 293 289 282 276 270 270 268 270 273 272 272 271 272 272 258 244 236 235 239 242 244 242 237 235 237 236 239 231 233 238 237 237 238 236 236 239 237 233 236
297 293 294 293 291 289 288 284 278 277 273 271 267 271 273 273 272 271 273 278 256 236 234 235 253 246 246 242 240 243 237 236 240 237 239 242 242 238 238 235 234 237 239 241
298 302 301 294 290 287 286 285 284 283 282 279 276 273 271 276 273 274 274 272 278 249 220 218 230 243 246 248 241 241 234 236 241 244 242 248 252 251 243 242 239 238 240 242
311 311 310 317 304 304 304 304 296 294 291 286 283 279 276 273 272 272 275 275 275 266 219 209 226 230 235 231 237 237 237 233 241 250 254 252 254 254 258 252 248 242 239 242
310 302 301 319 303 308 317 312 307 306 307 305 302 294 286 280 279 275 270 274 276 278 250 226 234 233 245 247 245 242 235 222 272 248 256 252 255 252 251 255 251 248 243 242
311 300 308 306 291 298 303 287 293 312 321 321 321 323 325 311 295 286 282 275 271 274 273 268 265 263 249 247 245 235 230 225 215 232 233 250 259 262 253 244 246 245 247 246
313 312 308 307 288 277 298 311 316 325 327 331 334 332 336 333 328 321 295 284 278 273 269 270 272 275 278 269 248 235 230 231 222 214 222 226 220 225 243 255 240 241 243 246
312 312 309 305 309 305 309 309 310 309 311 310 315 317 318 319 325 332 314 310 296 277 272 272 268 266 265 269 269 253 231 228 219 227 224 215 220 236 236 242 233 233 238 241
294 295 285 292 294 301 304 297 303 300 303 297 300 300 301 303 305 326 312 307 303 298 295 278 268 270 268 263 262 258 247 235 227 223 225 234 230 234 237 244 242 233 234 238
282 284 282 285 291 293 298 295 296 295 300 303 302 307 311 312 309 310 299 303 304 296 292 292 285 276 269 268 264 259 252 243 236 237 234 230 232 233 234 239 240 239 241 244
277 276 289 286 289 296 293 295 295 293 293 296 304 302 304 303 301 300 299 296 291 292 294 288 286 290 286 276 265 262 261 253 247 240 233 231 229 233 234 237 246 253 257 260
284 277 281 288 298 299 293 292 296 296 295 292 292 301 304 300 301 299 293 287 284 283 283 281 283 283 281 280 276 266 253 253 255 254 251 245 241 240 237 241 248 251 255 255
271 269 275 292 293 293 290 288 289 293 289 293 296 300 302 302 303 297 291 289 286 283 279 277 278 281 277 274 274 271 268 260 250 249 250 249 250 250 250 251 253 254 252 253
271 271 286 292 288 289 289 291 291 295 292 291 293 296 304 308 305 300 296 292 291 289 283 279 282 278 274 271 266 270 267 264 262 255 249 248 249 249 248 250 254 255 254 250
274 279 292 287 290 293 292 290 292 292 293 291 295 302 302 300 301 300 298 294 291 289 283 280 276 273 270 267 262 261 264 263 260 260 258 254 252 250 250 252 253 254 256 255
Height
10935 10935 10935 10935 10936 10936 10939 10939 10940 10942 10941 10944 10948 10949 10950 10951 10953 10954 10955 10956 10956 10957 10956 10956 10956 10956 10956 10956 10957 10959 10962 10967 10971 10975 10978 10981 10983 10983 10983 10983 10986 10989 10992 10994
10932 10931 10930 10930 10930 10930 10930 10933 10937 10942 10937 10938 10943 10945 10947 10947 10946 10948 10950 10953 10954 10954 10954 10955 10955 10955 10954 10954 10954 10958 10960 10964 10969 10973 10976 10979 10981 10984 10989 10985 10985 10988 10991 10992
10929 10928 10926 10925 10924 10924 10924 10926 10929 10931 10931 10933 10938 10943 10946 10946 10944 10943 10945 10949 10951 10952 10953 10953 10953 10954 10954 10953 10955 10957 10960 10962 10966 10969 10972 10975 10978 10985 11018 10987 10984 10986 10988 10990
10927 10926 10924 10922 10921 10920 10919 10920 10922 10924 10926 10929 10932 10941 10942 10933 10939 10940 10939 10942 10947 10948 10949 10950 10951 10951 10952 10954 10955 10956 10959 10961 10964 10967 10970 10973 10976 10979 10982 10983 10983 10984 10986 10987
10926 10923 10921 10920 10918 10917 10917 10916 10915 10917 10919 10923 10926 10938 10932 10929 10930 10934 10935 10936 10939 10943 10944 10946 10947 10948 10949 10950 10953 10956 10957 10960 10962 10965 10968 10970 10973 10976 10978 10980 10981 10982 10984 10984
10923 10921 10919 10917 10916 10914 10913 10912 10912 10912 10913 10916 10921 10925 10927 10914 10921 10927 10930 10932 10932 10936 10940 10942 10943 10944 10946 10947 10949 10952 10955 10957 10959 10962 10964 10967 10970 10973 10975 10977 10978 10978 10979 10979
10920 10918 10916 10914 10913 10911 10910 10909 10908 10908 10908 10910 10911 10915 10912 10905 10917 10918 10922 10926 10927 10929 10933 10936 10938 10940 10942 10944 10946 10949 10951 10952 10954 10957 10961 10963 10966 10968 10970 10971 10973 10974 10975 10976
10917 10916 10913 10911 10909 10907 10905 10905 10904 10903 10903 10903 10902 10903 10898 10902 10908 10909 10912 10918 10920 10920 10925 10929 10933 10936 10937 10939 10942 10945 10948 10951 10952 10952 10956 10960 10963 10965 10967 10967 10968 10970 10972 10972
10914 10911 10909 10908 10905 10903 10901 10899 10898 10897 10897 10897 10896 10895 10892 10893 10897 10899 10901 10905 10910 10912 10916 10920 10925 10929 10932 10934 10938 10940 10942 10945 10949 10953 10954 10956 10958 10961 10963 10964 10966 10967 10968 10969
10909 10906 10904 10902 10901 10898 10897 10894 10892 10891 10890 10889 10888 10887 10882 10888 10886 10885 10888 10892 10897 10902 10905 10909 10914 10917 10922 10926 10930 10933 10936 10938 10941 10943 10946 10948 10951 10955 10958 10959 10961 10962 10964 10965
10902 10900 10897 10894 10893 10892 10891 10889 10887 10885 10883 10882 10881 10877 10879 10880 10880 10877 10875 10880 10885 10891 10896 10900 10902 10907 10911 10915 10920 10925 10929 10932 10935 10937 10939 10941 10944 10947 10950 10952 10954 10955 10956 10958
10897 10893 10890 10887 10884 10882 10882 10882 10880 10879 10878 10876 10874 10872 10872 10872 10872 10869 10868 10870 10873 10879 10884 10888 10891 10898 10902 10908 10912 10917 10923 10927 10929 10931 10934 10936 10939 10941 10943 10945 10947 10949 10951 10953
10890 10886 10884 10881 10878 10875 10874 10873 10872 10871 10870 10869 10869 10866 10865 10864 10864 10862 10862 10860 10862 10865 10872 10883 10883 10887 10891 10898 10903 10908 10912 10916 10920 10924 10926 10930 10933 10934 10935 10936 10938 10941 10944 10946
10883 10880 10876 10874 10871 10870 10868 10867 10865 10864 10864 10862 10862 10860 10860 10859 10858 10856 10856 10855 10854 10855 10863 10869 10869 10874 10879 10884 10888 10894 10899 10906 10912 10917 10920 10923 10926 10929 10929 10928 10929 10931 10933 10936
10876 10874 10871 10868 10866 10864 10863 10862 10860 10859 10857 10855 10855 10853 10854 10853 10851 10851 10849 10848 10848 10852 10853 10855 10855 10860 10865 10869 10874 10882 10889 10896 10905 10908 10912 10915 10914 10916 10921 10923 10920 10921 10923 10925
10872 10870 10868 10866 10863 10862 10860 10858 10857 10855 10853 10850 10848 10848 10847 10846 10846 10845 10844 10841 10840 10842 10846 10849 10848 10851 10853 10855 10863 10870 10877 10889 10904 10898 10898 10902 10902 10902 10906 10910 10912 10912 10912 10914
10867 10865 10864 10863 10861 10860 10858 10857 10854 10852 10850 10847 10845 10843 10842 10841 10841 10841 10839 10839 10836 10834 10835 10838 10838 10837 10837 10839 10845 10852 10858 10861 10871 10878 10881 10889 10889 10888 10891 10892 10898 10899 10901 10902
10862 10861 10860 10859 10859 10858 10856 10854 10852 10850 10847 10844 10842 10840 10838 10837 10836 10835 10834 10831 10830 10829 10828 10827 10827 10828 10828 10827 10829 10835 10841 10847 10852 10853 10859 10874 10880 10876 10870 10873 10878 10884 10887 10890
10860 10858 10857 10856 10855 10854 10853 10851 10849 10847 10845 10841 10838 10836 10835 10832 10831 10831 10828 10827 10824 10821 10819 10819 10820 10821 10820 10820 10820 10821 10830 10833 10837 10846 10851 10851 10844 10842 10846 10850 10858 10864 10870 10874
10856 10855 10854 10853 10852 10850 10849 10846 10844 10840 10839 10835 10833 10830 10828 10826 10823 10825 10822 10820 10818 10815 10812 10809 10808 10807 10808 10811 10811 10811 10813 10817 10823 10824 10827 10832 10833 10830 10830 10839 10843 10845 10852 10857
10852 10850 10849 10848 10846 10844 10843 10839 10838 10835 10832 10830 10825 10822 10820 10818 10814 10818 10817 10813 10809 10806 10803 10801 10798 10797 10798 10797 10798 10800 10802 10803 10806 10810 10815 10817 10816 10821 10826 10827 10827 10832 10840 10847
10845 10844 10843 10842 10840 10838 10835 10833 10830 10828 10825 10821 10819 10817 10812 10809 10805 10804 10804 10802 10801 10796 10793 10791 10788 10786 10786 10784 10786 10787 10787 10789 10791 10793 10795 10798 10804 10806 10810 10812 10812 10818 10824 10828
10838 10837 10836 10834 10833 10830 10827 10824 10822 10818 10816 10813 10810 10807 10805 10801 10798 10793 10789 10788 10786 10783 10781 10777 10775 10773 10772 10771 10767 10769 10774 10774 10775 10777 10778 10778 10781 10784 10787 10790 10791 10796 10801 10805
10829 10830 10829 10828 10822 10824 10820 10815 10813 10809 10805 10802 10799 10796 10792 10788 10782 10778 10775 10770 10769 10767 10763 10761 10758 10757 10755 10755 10752 10751 10753 10753 10756 10758 10760 10762 10764 10765 10769 10771 10773 10777 10780 10784
10822 10822 10821 10819 10814 10811 10808 10806 10804 10802 10797 10793 10788 10783 10778 10773 10768 10761 10758 10754 10748 10744 10743 10741 10738 10735 10733 10734 10736 10730 10735 10735 10736 10738 10740 10742 10745 10749 10753 10754 10756 10756 10757 10764
10812 10812 10812 10809 10804 10801 10797 10795 10793 10791 10785 10780 10777 10770 10763 10757 10750 10742 10735 10728 10723 10719 10713 10712 10710 10707 10706 10708 10714 10712 10714 10715 10716 10717 10716 10719 10721 10724 10729 10735 10739 10740 10740 10743